| time (UTC) | temp F | wind direction | speed MPH | gust MPH | rain 1hr in | rain 24hr in | rain mn in | humidity % | barometer mb |
| 20260905133249 | 69 | 180 | 3.0 | 8.0 | 0.00 | 0.00 | 0.00 | 29 | 1007.1 |
| 20260905132110 | 67 | 223 | 2.0 | 6.0 | 0.00 | 0.00 | 0.00 | 31 | 1006.9 |
| 20260905131603 | 66 | 170 | 1.0 | 4.0 | 0.00 | 0.00 | 0.00 | 31 | 1006.8 |
| 20260905131055 | 66 | 215 | 1.0 | 4.0 | 0.00 | 0.00 | 0.00 | 32 | 1006.7 |
| 20260905130538 | 66 | 261 | 1.0 | 4.0 | 0.00 | 0.00 | 0.00 | 33 | 1006.7 |
| 20260905130033 | 66 | 240 | 1.0 | 4.0 | 0.00 | 0.00 | 0.00 | 33 | 1006.5 |
| 20260905124859 | 66 | 235 | 0.0 | 4.0 | 0.00 | 0.00 | 0.00 | 34 | 1006.3 |
| 20260905124349 | 66 | 253 | 1.0 | 4.0 | 0.00 | 0.00 | 0.00 | 34 | 1006.3 |
| 20260905123841 | 66 | 199 | 1.0 | 4.0 | 0.00 | 0.00 | 0.00 | 34 | 1006.3 |
| 20260905122735 | 66 | 216 | 0.0 | 2.0 | 0.00 | 0.00 | 0.00 | 35 | 1006.1 |
| 20260905122230 | 67 | 229 | 0.0 | 2.0 | 0.00 | 0.00 | 0.00 | 35 | 1006.1 |
| 20260905121740 | 67 | 228 | 0.0 | 2.0 | 0.00 | 0.00 | 0.00 | 36 | 1006.0 |
| 20260905121224 | 67 | 229 | 0.0 | 2.0 | 0.00 | 0.00 | 0.00 | 36 | 1006.0 |
| 20260905120711 | 67 | 234 | 0.0 | 2.0 | 0.00 | 0.00 | 0.00 | 36 | 1006.0 |
| 20260905120206 | 67 | 173 | 0.0 | 2.0 | 0.00 | 0.00 | 0.00 | 36 | 1006.0 |
| 20260905115700 | 68 | 246 | 0.0 | 2.0 | 0.00 | 0.00 | 0.00 | 36 | 1005.9 |
| 20260905115207 | 68 | 235 | 1.0 | 3.0 | 0.00 | 0.00 | 0.00 | 36 | 1006.0 |
| 20260905114715 | 68 | 237 | 1.0 | 3.0 | 0.00 | 0.00 | 0.00 | 36 | 1005.9 |
| 20260905114208 | 68 | 227 | 1.0 | 5.0 | 0.00 | 0.00 | 0.00 | 36 | 1005.9 |
| 20260905113716 | 69 | 245 | 2.0 | 5.0 | 0.00 | 0.00 | 0.00 | 35 | 1005.9 |
| 20260905113206 | 69 | 197 | 2.0 | 6.0 | 0.00 | 0.00 | 0.00 | 35 | 1005.9 |
| 20260905112026 | 69 | 242 | 2.0 | 6.0 | 0.00 | 0.00 | 0.00 | 36 | 1005.9 |
| 20260905111516 | 69 | 207 | 2.0 | 6.0 | 0.00 | 0.00 | 0.00 | 36 | 1005.9 |
| 20260905111022 | 69 | 185 | 1.0 | 4.0 | 0.00 | 0.00 | 0.00 | 36 | 1005.9 |
| 20260905105856 | 69 | 218 | 1.0 | 5.0 | 0.00 | 0.00 | 0.00 | 37 | 1005.8 |
| 20260905105345 | 70 | 251 | 2.0 | 6.0 | 0.00 | 0.00 | 0.00 | 36 | 1005.8 |
| 20260905104218 | 70 | 227 | 2.0 | 6.0 | 0.00 | 0.00 | 0.00 | 36 | 1005.7 |
| 20260905101815 | 69 | 230 | 0.0 | 2.0 | 0.00 | 0.00 | 0.00 | 38 | 1005.6 |
| 20260905101257 | 69 | 239 | 0.0 | 2.0 | 0.00 | 0.00 | 0.00 | 38 | 1005.5 |
| 20260905100752 | 69 | 166 | 0.0 | 2.0 | 0.00 | 0.00 | 0.00 | 38 | 1005.5 |
| 20260905095635 | 69 | 255 | 0.0 | 2.0 | 0.00 | 0.00 | 0.00 | 38 | 1005.3 |
| 20260905095135 | 69 | 246 | 0.0 | 0.0 | 0.00 | 0.00 | 0.00 | 39 | 1005.2 |
| 20260905094619 | 69 | 261 | 0.0 | 0.0 | 0.00 | 0.00 | 0.00 | 38 | 1005.1 |
| 20260905093456 | 69 | 256 | 0.0 | 0.0 | 0.00 | 0.00 | 0.00 | 36 | 1004.9 |
| 20260905092340 | 69 | 329 | 0.0 | 0.0 | 0.00 | 0.00 | 0.00 | 34 | 1004.9 |
| 20260905091151 | 69 | 320 | 0.0 | 0.0 | 0.00 | 0.00 | 0.00 | 37 | 1004.7 |
| 20260905090650 | 70 | 256 | 0.0 | 0.0 | 0.00 | 0.00 | 0.00 | 37 | 1004.7 |
| 20260905090148 | 70 | 256 | 0.0 | 0.0 | 0.00 | 0.00 | 0.00 | 37 | 1004.7 |
| 20260905085650 | 70 | 256 | 0.0 | 0.0 | 0.00 | 0.00 | 0.00 | 36 | 1004.7 |
| 20260905085150 | 71 | 246 | 0.0 | 1.0 | 0.00 | 0.00 | 0.00 | 36 | 1004.5 |
| 20260905084640 | 71 | 324 | 0.0 | 0.0 | 0.00 | 0.00 | 0.00 | 36 | 1004.5 |
| 20260905084132 | 71 | 333 | 0.0 | 0.0 | 0.00 | 0.00 | 0.00 | 36 | 1004.5 |
| 20260905083619 | 71 | 269 | 0.0 | 0.0 | 0.00 | 0.00 | 0.00 | 36 | 1004.5 |
| 20260905083114 | 72 | 268 | 0.0 | 0.0 | 0.00 | 0.00 | 0.00 | 36 | 1004.4 |
| 20260905082624 | 72 | 332 | 0.0 | 0.0 | 0.00 | 0.00 | 0.00 | 36 | 1004.2 |
| 20260905081434 | 72 | 252 | 0.0 | 1.0 | 0.00 | 0.00 | 0.00 | 36 | 1004.2 |
| 20260905080928 | 72 | 277 | 0.0 | 0.0 | 0.00 | 0.00 | 0.00 | 36 | 1004.2 |
| 20260905075758 | 73 | 254 | 0.0 | 2.0 | 0.00 | 0.00 | 0.00 | 35 | 1004.2 |
| 20260905075306 | 73 | 253 | 0.0 | 0.0 | 0.00 | 0.00 | 0.00 | 35 | 1004.2 |
| 20260905074756 | 73 | 250 | 0.0 | 1.0 | 0.00 | 0.00 | 0.00 | 35 | 1004.2 |
| 20260905074238 | 73 | 253 | 0.0 | 0.0 | 0.00 | 0.00 | 0.00 | 34 | 1004.2 |
| 20260905073725 | 74 | 265 | 0.0 | 0.0 | 0.00 | 0.00 | 0.00 | 34 | 1004.2 |
| 20260905073229 | 74 | 256 | 0.0 | 0.0 | 0.00 | 0.00 | 0.00 | 33 | 1004.0 |
| 20260905072712 | 75 | 233 | 1.0 | 6.0 | 0.00 | 0.00 | 0.00 | 32 | 1003.9 |
| 20260905072201 | 75 | 233 | 1.0 | 6.0 | 0.00 | 0.00 | 0.00 | 31 | 1003.7 |
| 20260905071655 | 75 | 253 | 2.0 | 6.0 | 0.00 | 0.00 | 0.00 | 31 | 1003.8 |
| 20260905071144 | 75 | 206 | 2.0 | 6.0 | 0.00 | 0.00 | 0.00 | 30 | 1003.7 |
| 20260905070638 | 76 | 172 | 1.0 | 6.0 | 0.00 | 0.00 | 0.00 | 30 | 1003.7 |
| 20260905070142 | 76 | 219 | 1.0 | 6.0 | 0.00 | 0.00 | 0.00 | 30 | 1003.6 |
| 20260905065634 | 76 | 258 | 2.0 | 6.0 | 0.00 | 0.00 | 0.00 | 30 | 1003.5 |
| 20260905065128 | 76 | 251 | 1.0 | 6.0 | 0.00 | 0.00 | 0.00 | 30 | 1003.4 |
| 20260905064608 | 76 | 243 | 2.0 | 6.0 | 0.00 | 0.00 | 0.00 | 30 | 1003.3 |
| 20260905064108 | 76 | 234 | 2.0 | 6.0 | 0.00 | 0.00 | 0.00 | 29 | 1003.3 |
| 20260905062320 | 76 | 163 | 1.0 | 7.0 | 0.00 | 0.00 | 0.00 | 30 | 1003.1 |
| 20260905061821 | 76 | 262 | 2.0 | 7.0 | 0.00 | 0.00 | 0.00 | 29 | 1003.0 |
| 20260905060712 | 77 | 245 | 3.0 | 9.0 | 0.00 | 0.00 | 0.00 | 29 | 1002.9 |
| 20260905060159 | 77 | 265 | 3.0 | 9.0 | 0.00 | 0.00 | 0.00 | 28 | 1002.8 |
| 20260905055648 | 77 | 214 | 3.0 | 11.0 | 0.00 | 0.00 | 0.00 | 28 | 1002.7 |
| 20260905055157 | 77 | 171 | 2.0 | 11.0 | 0.00 | 0.00 | 0.00 | 29 | 1002.6 |
| 20260905054657 | 77 | 220 | 2.0 | 11.0 | 0.00 | 0.00 | 0.00 | 28 | 1002.6 |
| 20260905054205 | 77 | 206 | 2.0 | 11.0 | 0.00 | 0.00 | 0.00 | 28 | 1002.5 |
| 20260905053048 | 77 | 185 | 1.0 | 8.0 | 0.00 | 0.00 | 0.00 | 28 | 1002.4 |
| 20260905052547 | 77 | 187 | 1.0 | 8.0 | 0.00 | 0.00 | 0.00 | 28 | 1002.4 |
| 20260905052038 | 77 | 234 | 1.0 | 8.0 | 0.00 | 0.00 | 0.00 | 28 | 1002.4 |
| 20260905051545 | 77 | 237 | 1.0 | 8.0 | 0.00 | 0.00 | 0.00 | 27 | 1002.4 |
| 20260905051043 | 76 | 244 | 0.0 | 4.0 | 0.00 | 0.00 | 0.00 | 27 | 1002.2 |
| 20260905045912 | 76 | 253 | 1.0 | 4.0 | 0.00 | 0.00 | 0.00 | 27 | 1002.3 |
| 20260905045412 | 76 | 216 | 0.0 | 4.0 | 0.00 | 0.00 | 0.00 | 27 | 1002.2 |
| 20260905044909 | 76 | 232 | 0.0 | 3.0 | 0.00 | 0.00 | 0.00 | 26 | 1002.1 |
| 20260905044404 | 76 | 252 | 0.0 | 3.0 | 0.00 | 0.00 | 0.00 | 26 | 1002.1 |
| 20260905043913 | 76 | 252 | 0.0 | 3.0 | 0.00 | 0.00 | 0.00 | 26 | 1002.1 |
| 20260905043407 | 76 | 257 | 0.0 | 3.0 | 0.00 | 0.00 | 0.00 | 26 | 1002.1 |
| 20260905042857 | 76 | 265 | 0.0 | 0.0 | 0.00 | 0.00 | 0.00 | 26 | 1002.0 |
| 20260905041719 | 76 | 218 | 0.0 | 3.0 | 0.00 | 0.00 | 0.00 | 26 | 1002.0 |
| 20260905041213 | 77 | 192 | 0.0 | 3.0 | 0.00 | 0.00 | 0.00 | 26 | 1001.9 |
| 20260905040712 | 77 | 248 | 0.0 | 0.0 | 0.00 | 0.00 | 0.00 | 26 | 1001.9 |
| 20260905040205 | 77 | 244 | 0.0 | 1.0 | 0.00 | 0.00 | 0.00 | 25 | 1001.8 |
| 20260905035652 | 78 | 237 | 0.0 | 0.0 | 0.00 | 0.00 | 0.00 | 25 | 1001.8 |
| 20260905033903 | 80 | 234 | 0.0 | 5.0 | 0.00 | 0.00 | 0.00 | 23 | 1001.6 |
| 20260905033354 | 80 | 263 | 1.0 | 5.0 | 0.00 | 0.00 | 0.00 | 23 | 1001.5 |
| 20260905032844 | 81 | 267 | 1.0 | 7.0 | 0.00 | 0.00 | 0.00 | 22 | 1001.5 |
| 20260905032335 | 81 | 267 | 0.0 | 7.0 | 0.00 | 0.00 | 0.00 | 23 | 1001.5 |
| 20260905031822 | 81 | 248 | 1.0 | 7.0 | 0.00 | 0.00 | 0.00 | 23 | 1001.5 |
| 20260905031329 | 81 | 153 | 2.0 | 7.0 | 0.00 | 0.00 | 0.00 | 22 | 1001.4 |
| 20260905030814 | 81 | 261 | 1.0 | 5.0 | 0.00 | 0.00 | 0.00 | 23 | 1001.3 |
| 20260905030300 | 81 | 277 | 0.0 | 3.0 | 0.00 | 0.00 | 0.00 | 23 | 1001.3 |
| 20260905025747 | 81 | 274 | 0.0 | 4.0 | 0.00 | 0.00 | 0.00 | 23 | 1001.3 |
| 20260905024022 | 83 | 242 | 2.0 | 8.0 | 0.00 | 0.00 | 0.00 | 22 | 1000.9 |
| 20260905023527 | 83 | 244 | 2.0 | 8.0 | 0.00 | 0.00 | 0.00 | 22 | 1000.9 |
| 20260905023032 | 83 | 281 | 1.0 | 8.0 | 0.00 | 0.00 | 0.00 | 22 | 1000.9 |
| 20260905022516 | 83 | 287 | 2.0 | 8.0 | 0.00 | 0.00 | 0.00 | 22 | 1000.9 |
| 20260905022007 | 84 | 220 | 3.0 | 9.0 | 0.00 | 0.00 | 0.00 | 21 | 1000.8 |
| 20260905021500 | 84 | 166 | 2.0 | 9.0 | 0.00 | 0.00 | 0.00 | 21 | 1000.8 |
| 20260905020340 | 84 | 244 | 4.0 | 17.0 | 0.00 | 0.00 | 0.00 | 21 | 1000.6 |
| 20260905015833 | 85 | 284 | 4.0 | 17.0 | 0.00 | 0.00 | 0.00 | 20 | 1000.7 |
| 20260905014652 | 85 | 262 | 3.0 | 12.0 | 0.00 | 0.00 | 0.00 | 21 | 1000.6 |
| 20260905014155 | 85 | 213 | 2.0 | 12.0 | 0.00 | 0.00 | 0.00 | 21 | 1000.7 |
| 20260905013642 | 85 | 197 | 4.0 | 14.0 | 0.00 | 0.00 | 0.00 | 20 | 1000.7 |
| 20260905013132 | 86 | 252 | 5.0 | 14.0 | 0.00 | 0.00 | 0.00 | 20 | 1000.6 |
| 20260905012623 | 86 | 249 | 5.0 | 17.0 | 0.00 | 0.00 | 0.00 | 20 | 1000.6 |
| 20260905012127 | 86 | 263 | 4.0 | 17.0 | 0.00 | 0.00 | 0.00 | 20 | 1000.6 |
| 20260905011627 | 86 | 279 | 6.0 | 18.0 | 0.00 | 0.00 | 0.00 | 20 | 1000.5 |
| 20260905011127 | 86 | 274 | 7.0 | 18.0 | 0.00 | 0.00 | 0.00 | 20 | 1000.5 |
| 20260905010628 | 87 | 255 | 6.0 | 21.0 | 0.00 | 0.00 | 0.00 | 20 | 1000.5 |
| 20260905010132 | 87 | 245 | 6.0 | 21.0 | 0.00 | 0.00 | 0.00 | 20 | 1000.5 |
| 20260905005630 | 87 | 217 | 7.0 | 21.0 | 0.00 | 0.00 | 0.00 | 19 | 1000.6 |
| 20260905005131 | 87 | 258 | 6.0 | 21.0 | 0.00 | 0.00 | 0.00 | 19 | 1000.5 |
| 20260905004627 | 87 | 259 | 6.0 | 19.0 | 0.00 | 0.00 | 0.00 | 20 | 1000.6 |
| 20260905004115 | 87 | 257 | 7.0 | 19.0 | 0.00 | 0.00 | 0.00 | 19 | 1000.5 |
| 20260905003604 | 87 | 244 | 7.0 | 21.0 | 0.00 | 0.00 | 0.00 | 19 | 1000.6 |
| 20260905002505 | 87 | 222 | 7.0 | 21.0 | 0.00 | 0.00 | 0.00 | 18 | 1000.6 |
| 20260905001312 | 88 | 255 | 6.0 | 24.0 | 0.00 | 0.00 | 0.00 | 18 | 1000.7 |
| 20260905000817 | 88 | 277 | 6.0 | 24.0 | 0.00 | 0.00 | 0.00 | 18 | 1000.6 |
| 20260905000321 | 88 | 233 | 7.0 | 24.0 | 0.00 | 0.00 | 0.00 | 18 | 1000.6 |
| 20260904235156 | 88 | 167 | 9.0 | 20.0 | 0.00 | 0.00 | 0.00 | 18 | 1000.6 |
| 20260904234647 | 89 | 258 | 8.0 | 20.0 | 0.00 | 0.00 | 0.00 | 17 | 1000.6 |
| 20260904234137 | 89 | 256 | 7.0 | 20.0 | 0.00 | 0.00 | 0.00 | 18 | 1000.6 |
| 20260904232335 | 89 | 218 | 7.0 | 19.0 | 0.00 | 0.00 | 0.00 | 16 | 1000.8 |
| 20260904231831 | 89 | 269 | 7.0 | 21.0 | 0.00 | 0.00 | 0.00 | 16 | 1000.7 |
| 20260904231316 | 89 | 192 | 7.0 | 21.0 | 0.00 | 0.00 | 0.00 | 16 | 1000.7 |
| 20260904230804 | 89 | 268 | 8.0 | 22.0 | 0.00 | 0.00 | 0.00 | 16 | 1000.9 |
| 20260904230257 | 89 | 263 | 7.0 | 22.0 | 0.00 | 0.00 | 0.00 | 16 | 1000.8 |
| 20260904225754 | 89 | 197 | 8.0 | 22.0 | 0.00 | 0.00 | 0.00 | 16 | 1000.9 |
| 20260904225300 | 89 | 246 | 7.0 | 22.0 | 0.00 | 0.00 | 0.00 | 15 | 1000.9 |
| 20260904224758 | 90 | 262 | 7.0 | 20.0 | 0.00 | 0.00 | 0.00 | 17 | 1001.0 |
| 20260904223648 | 89 | 278 | 7.0 | 20.0 | 0.00 | 0.00 | 0.00 | 17 | 1001.0 |
| 20260904223141 | 89 | 169 | 8.0 | 20.0 | 0.00 | 0.00 | 0.00 | 16 | 1001.2 |
| 20260904222016 | 89 | 257 | 6.0 | 18.0 | 0.00 | 0.00 | 0.00 | 16 | 1001.1 |
| 20260904221459 | 89 | 253 | 8.0 | 18.0 | 0.00 | 0.00 | 0.00 | 16 | 1001.4 |
| 20260904221010 | 89 | 174 | 7.0 | 20.0 | 0.00 | 0.00 | 0.00 | 16 | 1001.3 |
| 20260904220506 | 89 | 270 | 7.0 | 20.0 | 0.00 | 0.00 | 0.00 | 15 | 1001.3 |
| 20260904220003 | 89 | 215 | 9.0 | 20.0 | 0.00 | 0.00 | 0.00 | 16 | 1001.4 |
| 20260904215502 | 89 | 263 | 8.0 | 20.0 | 0.00 | 0.00 | 0.00 | 16 | 1001.4 |
| 20260904214951 | 89 | 289 | 8.0 | 20.0 | 0.00 | 0.00 | 0.00 | 15 | 1001.5 |
| 20260904214449 | 88 | 282 | 8.0 | 20.0 | 0.00 | 0.00 | 0.00 | 16 | 1001.5 |
| 20260904213951 | 88 | 184 | 8.0 | 24.0 | 0.00 | 0.00 | 0.00 | 16 | 1001.5 |
| 20260904213500 | 88 | 269 | 9.0 | 24.0 | 0.00 | 0.00 | 0.00 | 15 | 1001.7 |
| 20260904212942 | 88 | 263 | 8.0 | 24.0 | 0.00 | 0.00 | 0.00 | 16 | 1001.8 |
| 20260904211807 | 88 | 235 | 8.0 | 22.0 | 0.00 | 0.00 | 0.00 | 15 | 1001.9 |
| 20260904211301 | 88 | 161 | 8.0 | 22.0 | 0.00 | 0.00 | 0.00 | 16 | 1002.0 |
| 20260904204926 | 88 | 189 | 7.0 | 16.0 | 0.00 | 0.00 | 0.00 | 16 | 1002.2 |
| 20260904203808 | 87 | 257 | 7.0 | 21.0 | 0.00 | 0.00 | 0.00 | 15 | 1002.5 |
| 20260904202008 | 86 | 257 | 7.0 | 21.0 | 0.00 | 0.00 | 0.00 | 16 | 1002.6 |
| 20260904201510 | 87 | 261 | 7.0 | 18.0 | 0.00 | 0.00 | 0.00 | 16 | 1002.5 |
| 20260904201013 | 86 | 167 | 8.0 | 18.0 | 0.00 | 0.00 | 0.00 | 18 | 1002.7 |
| 20260904200510 | 86 | 289 | 7.0 | 18.0 | 0.00 | 0.00 | 0.00 | 19 | 1002.8 |
| 20260904200013 | 86 | 174 | 6.0 | 17.0 | 0.00 | 0.00 | 0.00 | 19 | 1002.7 |
| 20260904195459 | 86 | 165 | 6.0 | 15.0 | 0.00 | 0.00 | 0.00 | 18 | 1002.8 |
| 20260904195000 | 86 | 258 | 6.0 | 18.0 | 0.00 | 0.00 | 0.00 | 19 | 1002.9 |
| 20260904194500 | 85 | 161 | 9.0 | 18.0 | 0.00 | 0.00 | 0.00 | 19 | 1002.9 |
| 20260904193311 | 85 | 247 | 8.0 | 18.0 | 0.00 | 0.00 | 0.00 | 17 | 1003.2 |
| 20260904192209 | 85 | 179 | 8.0 | 23.0 | 0.00 | 0.00 | 0.00 | 17 | 1003.1 |
| 20260904191713 | 85 | 251 | 8.0 | 23.0 | 0.00 | 0.00 | 0.00 | 18 | 1003.1 |
| 20260904191156 | 85 | 198 | 6.0 | 26.0 | 0.00 | 0.00 | 0.00 | 20 | 1003.1 |
| 20260904190642 | 85 | 239 | 7.0 | 26.0 | 0.00 | 0.00 | 0.00 | 21 | 1003.2 |
| 20260904190149 | 85 | 277 | 7.0 | 26.0 | 0.00 | 0.00 | 0.00 | 19 | 1003.2 |
| 20260904185646 | 84 | 242 | 6.0 | 26.0 | 0.00 | 0.00 | 0.00 | 20 | 1003.3 |
| 20260904185152 | 84 | 242 | 6.0 | 18.0 | 0.00 | 0.00 | 0.00 | 20 | 1003.3 |
| 20260904184646 | 84 | 257 | 7.0 | 16.0 | 0.00 | 0.00 | 0.00 | 22 | 1003.5 |
| 20260904184132 | 84 | 153 | 7.0 | 21.0 | 0.00 | 0.00 | 0.00 | 21 | 1003.5 |
| 20260904183636 | 83 | 234 | 7.0 | 21.0 | 0.00 | 0.00 | 0.00 | 21 | 1003.6 |
| 20260904183138 | 84 | 167 | 5.0 | 25.0 | 0.00 | 0.00 | 0.00 | 21 | 1003.7 |
| 20260904182626 | 83 | 178 | 5.0 | 25.0 | 0.00 | 0.00 | 0.00 | 23 | 1003.7 |
| 20260904182119 | 83 | 166 | 7.0 | 25.0 | 0.00 | 0.00 | 0.00 | 24 | 1003.8 |
| 20260904181619 | 82 | 165 | 8.0 | 25.0 | 0.00 | 0.00 | 0.00 | 23 | 1004.0 |
| 20260904181116 | 83 | 192 | 7.0 | 23.0 | 0.00 | 0.00 | 0.00 | 24 | 1003.9 |
| 20260904180611 | 82 | 160 | 7.0 | 23.0 | 0.00 | 0.00 | 0.00 | 23 | 1003.9 |
| 20260904180111 | 82 | 193 | 7.0 | 23.0 | 0.00 | 0.00 | 0.00 | 24 | 1003.8 |
| 20260904175611 | 82 | 167 | 7.0 | 20.0 | 0.00 | 0.00 | 0.00 | 24 | 1003.9 |
| 20260904175118 | 82 | 263 | 8.0 | 20.0 | 0.00 | 0.00 | 0.00 | 24 | 1003.9 |
| 20260904174623 | 82 | 174 | 8.0 | 20.0 | 0.00 | 0.00 | 0.00 | 24 | 1004.0 |
| 20260904172902 | 81 | 197 | 7.0 | 20.0 | 0.00 | 0.00 | 0.00 | 25 | 1004.2 |
| 20260904172348 | 81 | 154 | 7.0 | 20.0 | 0.00 | 0.00 | 0.00 | 25 | 1004.2 |
| 20260904171832 | 81 | 222 | 7.0 | 20.0 | 0.00 | 0.00 | 0.00 | 25 | 1004.2 |
| 20260904171338 | 81 | 272 | 6.0 | 17.0 | 0.00 | 0.00 | 0.00 | 25 | 1004.3 |
| 20260904170820 | 81 | 170 | 7.0 | 17.0 | 0.00 | 0.00 | 0.00 | 25 | 1004.2 |
| 20260904170308 | 81 | 246 | 7.0 | 16.0 | 0.00 | 0.00 | 0.00 | 24 | 1004.3 |
| 20260904165151 | 80 | 182 | 6.0 | 16.0 | 0.00 | 0.00 | 0.00 | 25 | 1004.4 |
| 20260904164659 | 80 | 194 | 5.0 | 18.0 | 0.00 | 0.00 | 0.00 | 24 | 1004.4 |
| 20260904164153 | 80 | 182 | 6.0 | 18.0 | 0.00 | 0.00 | 0.00 | 24 | 1004.4 |
| 20260904163700 | 80 | 163 | 6.0 | 20.0 | 0.00 | 0.00 | 0.00 | 25 | 1004.5 |
| 20260904163209 | 80 | 175 | 6.0 | 20.0 | 0.00 | 0.00 | 0.00 | 24 | 1004.6 |
| 20260904162706 | 79 | 233 | 6.0 | 20.0 | 0.00 | 0.00 | 0.00 | 24 | 1004.5 |
| 20260904162215 | 79 | 180 | 5.0 | 20.0 | 0.00 | 0.00 | 0.00 | 24 | 1004.5 |
| 20260904161724 | 79 | 185 | 5.0 | 17.0 | 0.00 | 0.00 | 0.00 | 25 | 1004.6 |
| 20260904155922 | 78 | 149 | 5.0 | 19.0 | 0.00 | 0.00 | 0.00 | 23 | 1004.7 |
| 20260904155413 | 78 | 170 | 5.0 | 19.0 | 0.00 | 0.00 | 0.00 | 24 | 1004.7 |
| 20260904153639 | 77 | 227 | 5.0 | 15.0 | 0.00 | 0.00 | 0.00 | 25 | 1004.7 |
| 20260904153127 | 77 | 222 | 5.0 | 15.0 | 0.00 | 0.00 | 0.00 | 25 | 1004.7 |
| 20260904152025 | 76 | 187 | 5.0 | 15.0 | 0.00 | 0.00 | 0.00 | 25 | 1004.7 |
| 20260904151526 | 76 | 163 | 4.0 | 14.0 | 0.00 | 0.00 | 0.00 | 25 | 1004.7 |
| 20260904150352 | 75 | 163 | 5.0 | 14.0 | 0.00 | 0.00 | 0.00 | 24 | 1004.8 |
| 20260904145232 | 75 | 239 | 5.0 | 14.0 | 0.00 | 0.00 | 0.00 | 23 | 1004.6 |
| 20260904144722 | 75 | 184 | 5.0 | 14.0 | 0.00 | 0.00 | 0.00 | 24 | 1004.6 |
| 20260904144222 | 74 | 263 | 5.0 | 13.0 | 0.00 | 0.00 | 0.00 | 25 | 1004.6 |
| 20260904143711 | 74 | 167 | 4.0 | 13.0 | 0.00 | 0.00 | 0.00 | 24 | 1004.6 |
| 20260904142553 | 73 | 256 | 4.0 | 13.0 | 0.00 | 0.00 | 0.00 | 24 | 1004.4 |
| 20260904142042 | 73 | 262 | 4.0 | 13.0 | 0.00 | 0.00 | 0.00 | 24 | 1004.4 |
| 20260904141526 | 73 | 178 | 4.0 | 12.0 | 0.00 | 0.00 | 0.00 | 25 | 1004.4 |
| 20260904141012 | 73 | 276 | 4.0 | 12.0 | 0.00 | 0.00 | 0.00 | 24 | 1004.5 |
| 20260904140505 | 72 | 206 | 3.0 | 12.0 | 0.00 | 0.00 | 0.00 | 24 | 1004.5 |
| 20260904135946 | 72 | 244 | 4.0 | 12.0 | 0.00 | 0.00 | 0.00 | 24 | 1004.5 |
| 20260904135437 | 72 | 265 | 3.0 | 12.0 | 0.00 | 0.00 | 0.00 | 23 | 1004.4 |
| 20260904134929 | 71 | 175 | 3.0 | 11.0 | 0.00 | 0.00 | 0.00 | 23 | 1004.3 |
| 20260904134425 | 71 | 269 | 4.0 | 11.0 | 0.00 | 0.00 | 0.00 | 23 | 1004.2 |
| 20260904133916 | 71 | 207 | 4.0 | 12.0 | 0.00 | 0.00 | 0.00 | 23 | 1004.2 |